Tracking 30509 objects as of 21-May-2025
HD Live streaming from Space Station
objects crossing your sky now

GAOFEN 9 03

Track GAOFEN 9 03 now!
10-day predictions


NORAD ID: 45794
Int'l Code: 2020-039A
Perigee: 490.2 km
Apogee: 510.3 km
Inclination: 97.5 °
Period: 94.5 minutes
Semi major axis: 6871 km
RCS: Unknown
Launch date: June 17, 2020
Source: People's Republic of China (PRC)
Launch site: Jiuquan Satellite Launch Center, China (JSC)
Your satellite tracking list
Your tracking list is empty




NASA's NSSDC Master Catalog

Two Line Element Set (TLE):
1 45794U 20039A   25141.50701433  .00006902  00000-0  28512-3 0  9997
2 45794  97.4923 267.0900 0014594  29.3496 330.8558 15.24232988273946
Source of the keplerian elements: AFSPC